Year,Month,Day,Hour,Minute,Value (Times are PST for temperature in C)
2016,08,17,00,00,18.30
2016,08,17,00,01,18.30
2016,08,17,00,02,18.30
2016,08,17,00,03,18.20
2016,08,17,00,04,18.20
2016,08,17,00,05,18.20
2016,08,17,00,06,18.20
2016,08,17,00,07,18.20
2016,08,17,00,08,18.10
2016,08,17,00,09,18.10
2016,08,17,00,10,18.10
2016,08,17,00,11,18.10
2016,08,17,00,12,18.00
2016,08,17,00,13,18.00
2016,08,17,00,14,18.00
2016,08,17,00,15,18.00
2016,08,17,00,16,17.90
2016,08,17,00,17,17.90
2016,08,17,00,18,17.90
2016,08,17,00,19,17.90
2016,08,17,00,20,17.90
2016,08,17,00,21,17.80
2016,08,17,00,22,17.80
2016,08,17,00,23,17.80
2016,08,17,00,24,17.80
2016,08,17,00,25,17.80
2016,08,17,00,26,17.80
2016,08,17,00,27,17.70
2016,08,17,00,28,17.70
2016,08,17,00,29,17.70
2016,08,17,00,30,17.70
2016,08,17,00,31,17.70
2016,08,17,00,32,17.60
2016,08,17,00,33,17.60
2016,08,17,00,34,17.60
2016,08,17,00,35,17.60
2016,08,17,00,36,17.50
2016,08,17,00,37,17.50
2016,08,17,00,38,17.50
2016,08,17,00,39,17.50
2016,08,17,00,40,17.40
2016,08,17,00,41,17.40
2016,08,17,00,42,17.40
2016,08,17,00,43,17.40
2016,08,17,00,44,17.40
2016,08,17,00,45,17.40
2016,08,17,00,46,17.40
2016,08,17,00,47,17.40
2016,08,17,00,48,17.30
2016,08,17,00,49,17.30
2016,08,17,00,50,17.30
2016,08,17,00,51,17.30
2016,08,17,00,52,17.30
2016,08,17,00,53,17.30
2016,08,17,00,54,17.30
2016,08,17,00,55,17.30
2016,08,17,00,56,17.30
2016,08,17,00,57,17.20
2016,08,17,00,58,17.20
2016,08,17,00,59,17.20
2016,08,17,01,00,17.20
2016,08,17,01,01,17.20
2016,08,17,01,02,17.20
2016,08,17,01,03,17.20
2016,08,17,01,04,17.20
2016,08,17,01,05,17.20
2016,08,17,01,06,17.20
2016,08,17,01,07,17.20
2016,08,17,01,08,17.20
2016,08,17,01,09,17.20
2016,08,17,01,10,17.10
2016,08,17,01,11,17.10
2016,08,17,01,12,17.10
2016,08,17,01,13,17.10
2016,08,17,01,14,17.10
2016,08,17,01,15,17.10
2016,08,17,01,16,17.10
2016,08,17,01,17,17.10
2016,08,17,01,18,17.10
2016,08,17,01,19,17.10
2016,08,17,01,20,17.10
2016,08,17,01,21,17.10
2016,08,17,01,22,17.10
2016,08,17,01,23,17.10
2016,08,17,01,24,17.10
2016,08,17,01,25,17.00
2016,08,17,01,26,17.00
2016,08,17,01,27,17.00
2016,08,17,01,28,17.00
2016,08,17,01,29,17.00
2016,08,17,01,30,17.00
2016,08,17,01,31,17.00
2016,08,17,01,32,17.00
2016,08,17,01,33,17.00
2016,08,17,01,34,17.00
2016,08,17,01,35,17.00
2016,08,17,01,36,17.00
2016,08,17,01,37,17.00
2016,08,17,01,38,17.00
2016,08,17,01,39,17.00
2016,08,17,01,40,17.00
2016,08,17,01,41,17.00
2016,08,17,01,42,17.00
2016,08,17,01,43,17.00
2016,08,17,01,44,17.00
2016,08,17,01,45,17.00
2016,08,17,01,46,17.00
2016,08,17,01,47,17.00
2016,08,17,01,48,17.00
2016,08,17,01,49,17.00
2016,08,17,01,50,17.00
2016,08,17,01,51,17.00
2016,08,17,01,52,17.00
2016,08,17,01,53,17.00
2016,08,17,01,54,17.10
2016,08,17,01,55,17.10
2016,08,17,01,56,17.10
2016,08,17,01,57,17.10
2016,08,17,01,58,17.10
2016,08,17,01,59,17.10
2016,08,17,02,00,17.10
2016,08,17,02,01,17.10
2016,08,17,02,02,17.10
2016,08,17,02,03,17.00
2016,08,17,02,04,17.00
2016,08,17,02,05,17.00
2016,08,17,02,06,17.00
2016,08,17,02,07,17.00
2016,08,17,02,08,17.00
2016,08,17,02,09,17.00
2016,08,17,02,10,17.00
2016,08,17,02,11,17.00
2016,08,17,02,12,16.90
2016,08,17,02,13,16.90
2016,08,17,02,14,16.90
2016,08,17,02,15,16.90
2016,08,17,02,16,16.90
2016,08,17,02,17,16.90
2016,08,17,02,18,16.90
2016,08,17,02,19,16.90
2016,08,17,02,20,16.90
2016,08,17,02,21,16.90
2016,08,17,02,22,16.90
2016,08,17,02,23,16.90
2016,08,17,02,24,16.80
2016,08,17,02,25,16.80
2016,08,17,02,26,16.80
2016,08,17,02,27,16.80
2016,08,17,02,28,16.80
2016,08,17,02,29,16.80
2016,08,17,02,30,16.80
2016,08,17,02,31,16.80
2016,08,17,02,32,16.80
2016,08,17,02,33,16.70
2016,08,17,02,34,16.70
2016,08,17,02,35,16.70
2016,08,17,02,36,16.70
2016,08,17,02,37,16.70
2016,08,17,02,38,16.70
2016,08,17,02,39,16.70
2016,08,17,02,40,16.70
2016,08,17,02,41,16.60
2016,08,17,02,42,16.60
2016,08,17,02,43,16.60
2016,08,17,02,44,16.60
2016,08,17,02,45,16.60
2016,08,17,02,46,16.60
2016,08,17,02,47,16.60
2016,08,17,02,48,16.60
2016,08,17,02,49,16.50
2016,08,17,02,50,16.50
2016,08,17,02,51,16.50
2016,08,17,02,52,16.40
2016,08,17,02,53,16.40
2016,08,17,02,54,16.40
2016,08,17,02,55,16.40
2016,08,17,02,56,16.40
2016,08,17,02,57,16.40
2016,08,17,02,58,16.30
2016,08,17,02,59,16.30
2016,08,17,03,00,16.30
2016,08,17,03,01,16.30
2016,08,17,03,02,16.30
2016,08,17,03,03,16.20
2016,08,17,03,04,16.20
2016,08,17,03,05,16.20
2016,08,17,03,06,16.20
2016,08,17,03,07,16.20
2016,08,17,03,08,16.20
2016,08,17,03,09,16.10
2016,08,17,03,10,16.10
2016,08,17,03,11,16.10
2016,08,17,03,12,16.10
2016,08,17,03,13,16.10
2016,08,17,03,14,16.10
2016,08,17,03,15,16.00
2016,08,17,03,16,16.00
2016,08,17,03,17,16.00
2016,08,17,03,18,16.00
2016,08,17,03,19,15.90
2016,08,17,03,20,15.90
2016,08,17,03,21,15.90
2016,08,17,03,22,15.90
2016,08,17,03,23,15.90
2016,08,17,03,24,15.90
2016,08,17,03,25,15.80
2016,08,17,03,26,15.80
2016,08,17,03,27,15.80
2016,08,17,03,28,15.80
2016,08,17,03,29,15.80
2016,08,17,03,30,15.80
2016,08,17,03,31,15.80
2016,08,17,03,32,15.80
2016,08,17,03,33,15.70
2016,08,17,03,34,15.70
2016,08,17,03,35,15.70
2016,08,17,03,36,15.70
2016,08,17,03,37,15.70
2016,08,17,03,38,15.70
2016,08,17,03,39,15.70
2016,08,17,03,40,15.70
2016,08,17,03,41,15.70
2016,08,17,03,42,15.70
2016,08,17,03,43,15.70
2016,08,17,03,44,15.70
2016,08,17,03,45,15.70
2016,08,17,03,46,15.70
2016,08,17,03,47,15.70
2016,08,17,03,48,15.70
2016,08,17,03,49,15.70
2016,08,17,03,50,15.70
2016,08,17,03,51,15.60
2016,08,17,03,52,15.60
2016,08,17,03,53,15.60
2016,08,17,03,54,15.60
2016,08,17,03,55,15.60
2016,08,17,03,56,15.60
2016,08,17,03,57,15.60
2016,08,17,03,58,15.60
2016,08,17,03,59,15.60
2016,08,17,04,00,15.60
2016,08,17,04,01,15.60
2016,08,17,04,02,15.60
2016,08,17,04,03,15.60
2016,08,17,04,04,15.60
2016,08,17,04,05,15.50
2016,08,17,04,06,15.50
2016,08,17,04,07,15.50
2016,08,17,04,08,15.50
2016,08,17,04,09,15.50
2016,08,17,04,10,15.50
2016,08,17,04,11,15.50
2016,08,17,04,12,15.50
2016,08,17,04,13,15.50
2016,08,17,04,14,15.40
2016,08,17,04,15,15.40
2016,08,17,04,16,15.40
2016,08,17,04,17,15.40
2016,08,17,04,18,15.40
2016,08,17,04,19,15.40
2016,08,17,04,20,15.40
2016,08,17,04,21,15.40
2016,08,17,04,22,15.40
2016,08,17,04,23,15.40
2016,08,17,04,24,15.40
2016,08,17,04,25,15.40
2016,08,17,04,26,15.40
2016,08,17,04,27,15.40
2016,08,17,04,28,15.40
2016,08,17,04,29,15.40
2016,08,17,04,30,15.40
2016,08,17,04,31,15.40
2016,08,17,04,32,15.40
2016,08,17,04,33,15.40
2016,08,17,04,34,15.40
2016,08,17,04,35,15.40
2016,08,17,04,36,15.40
2016,08,17,04,37,15.40
2016,08,17,04,38,15.30
2016,08,17,04,39,15.30
2016,08,17,04,40,15.30
2016,08,17,04,41,15.30
2016,08,17,04,42,15.30
2016,08,17,04,43,15.30
2016,08,17,04,44,15.30
2016,08,17,04,45,15.30
2016,08,17,04,46,15.30
2016,08,17,04,47,15.30
2016,08,17,04,48,15.30
2016,08,17,04,49,15.30
2016,08,17,04,50,15.30
2016,08,17,04,51,15.30
2016,08,17,04,52,15.30
2016,08,17,04,53,15.30
2016,08,17,04,54,15.30
2016,08,17,04,55,15.20
2016,08,17,04,56,15.20
2016,08,17,04,57,15.20
2016,08,17,04,58,15.20
2016,08,17,04,59,15.20
2016,08,17,05,00,15.20
2016,08,17,05,01,15.20
2016,08,17,05,02,15.20
2016,08,17,05,03,15.20
2016,08,17,05,04,15.20
2016,08,17,05,05,15.20
2016,08,17,05,06,15.20
2016,08,17,05,07,15.20
2016,08,17,05,08,15.20
2016,08,17,05,09,15.20
2016,08,17,05,10,15.10
2016,08,17,05,11,15.10
2016,08,17,05,12,15.10
2016,08,17,05,13,15.10
2016,08,17,05,14,15.10
2016,08,17,05,15,15.10
2016,08,17,05,16,15.10
2016,08,17,05,17,15.10
2016,08,17,05,18,15.10
2016,08,17,05,19,15.00
2016,08,17,05,20,15.00
2016,08,17,05,21,15.00
2016,08,17,05,22,14.90
2016,08,17,05,23,14.90
2016,08,17,05,24,14.90
2016,08,17,05,25,14.90
2016,08,17,05,26,14.90
2016,08,17,05,27,14.90
2016,08,17,05,28,14.90
2016,08,17,05,29,14.80
2016,08,17,05,30,14.80
2016,08,17,05,31,14.80
2016,08,17,05,32,14.80
2016,08,17,05,33,14.80
2016,08,17,05,34,14.80
2016,08,17,05,35,14.80
2016,08,17,05,36,14.70
2016,08,17,05,37,14.70
2016,08,17,05,38,14.70
2016,08,17,05,39,14.70
2016,08,17,05,40,14.70
2016,08,17,05,41,14.70
2016,08,17,05,42,14.70
2016,08,17,05,43,14.70
2016,08,17,05,44,14.70
2016,08,17,05,45,14.70
2016,08,17,05,46,14.60
2016,08,17,05,47,14.60
2016,08,17,05,48,14.60
2016,08,17,05,49,14.60
2016,08,17,05,50,14.60
2016,08,17,05,51,14.60
2016,08,17,05,52,14.60
2016,08,17,05,53,14.50
2016,08,17,05,54,14.50
2016,08,17,05,55,14.50
2016,08,17,05,56,14.50
2016,08,17,05,57,14.50
2016,08,17,05,58,14.50
2016,08,17,05,59,14.40
2016,08,17,06,00,14.40
2016,08,17,06,01,14.40
2016,08,17,06,02,14.40
2016,08,17,06,03,14.40
2016,08,17,06,04,14.40
2016,08,17,06,05,14.40
2016,08,17,06,06,14.40
2016,08,17,06,07,14.40
2016,08,17,06,08,14.40
2016,08,17,06,09,14.40
2016,08,17,06,10,14.30
2016,08,17,06,11,14.30
2016,08,17,06,12,14.30
2016,08,17,06,13,14.30
2016,08,17,06,14,14.30
2016,08,17,06,15,14.30
2016,08,17,06,16,14.30
2016,08,17,06,17,14.30
2016,08,17,06,18,14.30
2016,08,17,06,19,14.30
2016,08,17,06,20,14.30
2016,08,17,06,21,14.30
2016,08,17,06,22,14.30
2016,08,17,06,23,14.30
2016,08,17,06,24,14.30
2016,08,17,06,25,14.30
2016,08,17,06,26,14.30
2016,08,17,06,27,14.20
2016,08,17,06,28,14.20
2016,08,17,06,29,14.20
2016,08,17,06,30,14.30
2016,08,17,06,31,14.30
2016,08,17,06,32,14.20
2016,08,17,06,33,14.20
2016,08,17,06,34,14.20
2016,08,17,06,35,14.20
2016,08,17,06,36,14.20
2016,08,17,06,37,14.20
2016,08,17,06,38,14.20
2016,08,17,06,39,14.20
2016,08,17,06,40,14.20
2016,08,17,06,41,14.20
2016,08,17,06,42,14.20
2016,08,17,06,43,14.20
2016,08,17,06,44,14.20
2016,08,17,06,45,14.30
2016,08,17,06,46,14.30
2016,08,17,06,47,14.30
2016,08,17,06,48,14.30
2016,08,17,06,49,14.30
2016,08,17,06,50,14.30
2016,08,17,06,51,14.30
2016,08,17,06,52,14.30
2016,08,17,06,53,14.30
2016,08,17,06,54,14.30
2016,08,17,06,55,14.30
2016,08,17,06,56,14.30
2016,08,17,06,57,14.40
2016,08,17,06,58,14.40
2016,08,17,06,59,14.40
2016,08,17,07,00,14.40
2016,08,17,07,01,14.40
2016,08,17,07,02,14.40
2016,08,17,07,03,14.40
2016,08,17,07,04,14.50
2016,08,17,07,05,14.50
2016,08,17,07,06,14.50
2016,08,17,07,07,14.60
2016,08,17,07,08,14.60
2016,08,17,07,09,14.60
2016,08,17,07,10,14.60
2016,08,17,07,11,14.70
2016,08,17,07,12,14.70
2016,08,17,07,13,14.70
2016,08,17,07,14,14.70
2016,08,17,07,15,14.80
2016,08,17,07,16,14.80
2016,08,17,07,17,14.80
2016,08,17,07,18,14.90
2016,08,17,07,19,14.90
2016,08,17,07,20,14.90
2016,08,17,07,21,14.90
2016,08,17,07,22,15.00
2016,08,17,07,23,15.00
2016,08,17,07,24,15.10
2016,08,17,07,25,15.10
2016,08,17,07,26,15.10
2016,08,17,07,27,15.20
2016,08,17,07,28,15.20
2016,08,17,07,29,15.20
2016,08,17,07,30,15.30
2016,08,17,07,31,15.30
2016,08,17,07,32,15.30
2016,08,17,07,33,15.40
2016,08,17,07,34,15.40
2016,08,17,07,35,15.50
2016,08,17,07,36,15.50
2016,08,17,07,37,15.60
2016,08,17,07,38,15.60
2016,08,17,07,39,15.70
2016,08,17,07,40,15.70
2016,08,17,07,41,15.80
2016,08,17,07,42,15.80
2016,08,17,07,43,15.90
2016,08,17,07,44,15.90
2016,08,17,07,45,16.00
2016,08,17,07,46,16.00
2016,08,17,07,47,16.10
2016,08,17,07,48,16.10
2016,08,17,07,49,16.20
2016,08,17,07,50,16.30
2016,08,17,07,51,16.30
2016,08,17,07,52,16.40
2016,08,17,07,53,16.40
2016,08,17,07,54,16.50
2016,08,17,07,55,16.60
2016,08,17,07,56,16.70
2016,08,17,07,57,16.70
2016,08,17,07,58,16.80
2016,08,17,07,59,16.80
2016,08,17,08,00,16.90
2016,08,17,08,01,17.00
2016,08,17,08,02,17.00
2016,08,17,08,03,17.10
2016,08,17,08,04,17.20
2016,08,17,08,05,17.20
2016,08,17,08,06,17.30
2016,08,17,08,07,17.40
2016,08,17,08,08,17.40
2016,08,17,08,09,17.50
2016,08,17,08,10,17.60
2016,08,17,08,11,17.60
2016,08,17,08,12,17.70
2016,08,17,08,13,17.80
2016,08,17,08,14,17.80
2016,08,17,08,15,17.90
2016,08,17,08,16,18.00
2016,08,17,08,17,18.10
2016,08,17,08,18,18.20
2016,08,17,08,19,18.30
2016,08,17,08,20,18.40
2016,08,17,08,21,18.40
2016,08,17,08,22,18.50
2016,08,17,08,23,18.50
2016,08,17,08,24,18.60
2016,08,17,08,25,18.60
2016,08,17,08,26,18.70
2016,08,17,08,27,18.70
2016,08,17,08,28,18.80
2016,08,17,08,29,18.80
2016,08,17,08,30,18.90
2016,08,17,08,31,18.90
2016,08,17,08,32,19.00
2016,08,17,08,33,19.00
2016,08,17,08,34,19.00
2016,08,17,08,35,19.10
2016,08,17,08,36,19.10
2016,08,17,08,37,19.20
2016,08,17,08,38,19.20
2016,08,17,08,39,19.30
2016,08,17,08,40,19.30
2016,08,17,08,41,19.30
2016,08,17,08,42,19.30
2016,08,17,08,43,19.30
2016,08,17,08,44,19.30
2016,08,17,08,45,19.30
2016,08,17,08,46,19.30
2016,08,17,08,47,19.30
2016,08,17,08,48,19.30
2016,08,17,08,49,19.30
2016,08,17,08,50,19.30
2016,08,17,08,51,19.30
2016,08,17,08,52,19.30
2016,08,17,08,53,19.40
2016,08,17,08,54,19.40
2016,08,17,08,55,19.40
2016,08,17,08,56,19.50
2016,08,17,08,57,19.50
2016,08,17,08,58,19.60
2016,08,17,08,59,19.60
2016,08,17,09,00,19.70
2016,08,17,09,01,19.70
2016,08,17,09,02,19.80
2016,08,17,09,03,19.80
2016,08,17,09,04,19.80
2016,08,17,09,05,19.90
2016,08,17,09,06,20.00
2016,08,17,09,07,20.00
2016,08,17,09,08,20.10
2016,08,17,09,09,20.20
2016,08,17,09,10,20.30
2016,08,17,09,11,20.40
2016,08,17,09,12,20.40
2016,08,17,09,13,20.50
2016,08,17,09,14,20.60
2016,08,17,09,15,20.70
2016,08,17,09,16,20.70
2016,08,17,09,17,20.80
2016,08,17,09,18,20.80
2016,08,17,09,19,20.80
2016,08,17,09,20,20.80
2016,08,17,09,21,20.80
2016,08,17,09,22,20.80
2016,08,17,09,23,20.80
2016,08,17,09,24,20.80
2016,08,17,09,25,20.80
2016,08,17,09,26,20.80
2016,08,17,09,27,20.80
2016,08,17,09,28,20.70
2016,08,17,09,29,20.70
2016,08,17,09,30,20.80
2016,08,17,09,31,20.80
2016,08,17,09,32,20.80
2016,08,17,09,33,20.80
2016,08,17,09,34,20.80
2016,08,17,09,35,20.90
2016,08,17,09,36,21.00
2016,08,17,09,37,21.00
2016,08,17,09,38,21.00
2016,08,17,09,39,21.00
2016,08,17,09,40,21.00
2016,08,17,09,41,21.00
2016,08,17,09,42,21.00
2016,08,17,09,43,21.00
2016,08,17,09,44,21.00
2016,08,17,09,45,21.00
2016,08,17,09,46,21.00
2016,08,17,09,47,21.10
2016,08,17,09,48,21.20
2016,08,17,09,49,21.30
2016,08,17,09,50,21.30
2016,08,17,09,51,21.40
2016,08,17,09,52,21.40
2016,08,17,09,53,21.50
2016,08,17,09,54,21.50
2016,08,17,09,55,21.60
2016,08,17,09,56,21.60
2016,08,17,09,57,21.60
2016,08,17,09,58,21.70
2016,08,17,09,59,21.60
2016,08,17,10,00,21.60
2016,08,17,10,01,21.60
2016,08,17,10,02,21.70
2016,08,17,10,03,21.70
2016,08,17,10,04,21.70
2016,08,17,10,05,21.70
2016,08,17,10,06,21.70
2016,08,17,10,07,21.70
2016,08,17,10,08,21.80
2016,08,17,10,09,21.80
2016,08,17,10,10,21.90
2016,08,17,10,11,22.00
2016,08,17,10,12,22.10
2016,08,17,10,13,22.20
2016,08,17,10,14,22.20
2016,08,17,10,15,22.20
2016,08,17,10,16,22.20
2016,08,17,10,17,22.30
2016,08,17,10,18,22.30
2016,08,17,10,19,22.20
2016,08,17,10,20,22.20
2016,08,17,10,21,22.10
2016,08,17,10,22,22.10
2016,08,17,10,23,22.10
2016,08,17,10,24,22.10
2016,08,17,10,25,22.10
2016,08,17,10,26,22.10
2016,08,17,10,27,22.10
2016,08,17,10,28,22.20
2016,08,17,10,29,22.30
2016,08,17,10,30,22.30
2016,08,17,10,31,22.30
2016,08,17,10,32,22.30
2016,08,17,10,33,22.30
2016,08,17,10,34,22.30
2016,08,17,10,35,22.30
2016,08,17,10,36,22.30
2016,08,17,10,37,22.30
2016,08,17,10,38,22.30
2016,08,17,10,39,22.40
2016,08,17,10,40,22.40
2016,08,17,10,41,22.40
2016,08,17,10,42,22.40
2016,08,17,10,43,22.40
2016,08,17,10,44,22.40
2016,08,17,10,45,22.40
2016,08,17,10,46,22.30
2016,08,17,10,47,22.40
2016,08,17,10,48,22.40
2016,08,17,10,49,22.40
2016,08,17,10,50,22.40
2016,08,17,10,51,22.40
2016,08,17,10,52,22.40
2016,08,17,10,53,22.40
2016,08,17,10,54,22.40
2016,08,17,10,55,22.50
2016,08,17,10,56,22.50
2016,08,17,10,57,22.50
2016,08,17,10,58,22.60
2016,08,17,10,59,22.60
2016,08,17,11,00,22.60
2016,08,17,11,01,22.60
2016,08,17,11,02,22.70
2016,08,17,11,03,22.60
2016,08,17,11,04,22.50
2016,08,17,11,05,22.50
2016,08,17,11,06,22.50
2016,08,17,11,07,22.50
2016,08,17,11,08,22.60
2016,08,17,11,09,22.50
2016,08,17,11,10,22.50
2016,08,17,11,11,22.50
2016,08,17,11,12,22.50
2016,08,17,11,13,22.50
2016,08,17,11,14,22.50
2016,08,17,11,15,22.60
2016,08,17,11,16,22.60
2016,08,17,11,17,22.70
2016,08,17,11,18,22.70
2016,08,17,11,19,22.70
2016,08,17,11,20,22.70
2016,08,17,11,21,22.80
2016,08,17,11,22,22.80
2016,08,17,11,23,22.90
2016,08,17,11,24,22.90
2016,08,17,11,25,22.90
2016,08,17,11,26,22.90
2016,08,17,11,27,22.90
2016,08,17,11,28,22.80
2016,08,17,11,29,22.80
2016,08,17,11,30,22.80
2016,08,17,11,31,22.80
2016,08,17,11,32,22.90
2016,08,17,11,33,22.90
2016,08,17,11,34,22.90
2016,08,17,11,35,23.00
2016,08,17,11,36,23.00
2016,08,17,11,37,23.10
2016,08,17,11,38,23.10
2016,08,17,11,39,23.10
2016,08,17,11,40,23.00
2016,08,17,11,41,23.00
2016,08,17,11,42,22.90
2016,08,17,11,43,22.90
2016,08,17,11,44,22.90
2016,08,17,11,45,22.80
2016,08,17,11,46,22.80
2016,08,17,11,47,22.80
2016,08,17,11,48,22.80
2016,08,17,11,49,22.90
2016,08,17,11,50,22.90
2016,08,17,11,51,22.90
2016,08,17,11,52,22.90
2016,08,17,11,53,22.90
2016,08,17,11,54,22.90
2016,08,17,11,55,22.90
2016,08,17,11,56,23.00
2016,08,17,11,57,23.00
2016,08,17,11,58,23.00
2016,08,17,11,59,23.00
2016,08,17,12,00,23.00
2016,08,17,12,01,23.10
2016,08,17,12,02,23.10
2016,08,17,12,03,23.10
2016,08,17,12,04,23.20
2016,08,17,12,05,23.20
2016,08,17,12,06,23.20
2016,08,17,12,07,23.20
2016,08,17,12,08,23.20
2016,08,17,12,09,23.20
2016,08,17,12,10,23.20
2016,08,17,12,11,23.20
2016,08,17,12,12,23.30
2016,08,17,12,13,23.30
2016,08,17,12,14,23.40
2016,08,17,12,15,23.40
2016,08,17,12,16,23.40
2016,08,17,12,17,23.50
2016,08,17,12,18,23.50
2016,08,17,12,19,23.50
2016,08,17,12,20,23.40
2016,08,17,12,21,23.30
2016,08,17,12,22,23.30
2016,08,17,12,23,23.20
2016,08,17,12,24,23.20
2016,08,17,12,25,23.20
2016,08,17,12,26,23.20
2016,08,17,12,27,23.20
2016,08,17,12,28,23.30
2016,08,17,12,29,23.30
2016,08,17,12,30,23.40
2016,08,17,12,31,23.40
2016,08,17,12,32,23.50
2016,08,17,12,33,23.50
2016,08,17,12,34,23.60
2016,08,17,12,35,23.60
2016,08,17,12,36,23.70
2016,08,17,12,37,23.70
2016,08,17,12,38,23.80
2016,08,17,12,39,23.80
2016,08,17,12,40,23.90
2016,08,17,12,41,23.90
2016,08,17,12,42,23.90
2016,08,17,12,43,23.90
2016,08,17,12,44,23.90
2016,08,17,12,45,23.90
2016,08,17,12,46,23.90
2016,08,17,12,47,23.80
2016,08,17,12,48,23.80
2016,08,17,12,49,23.80
2016,08,17,12,50,23.70
2016,08,17,12,51,23.70
2016,08,17,12,52,23.70
2016,08,17,12,53,23.60
2016,08,17,12,54,23.60
2016,08,17,12,55,23.60
2016,08,17,12,56,23.60
2016,08,17,12,57,23.60
2016,08,17,12,58,23.60
2016,08,17,12,59,23.60
2016,08,17,13,00,23.70
2016,08,17,13,01,23.80
2016,08,17,13,02,23.80
2016,08,17,13,03,23.90
2016,08,17,13,04,23.90
2016,08,17,13,05,24.00
2016,08,17,13,06,24.10
2016,08,17,13,07,24.00
2016,08,17,13,08,23.90
2016,08,17,13,09,23.90
2016,08,17,13,10,23.90
2016,08,17,13,11,23.90
2016,08,17,13,12,23.90
2016,08,17,13,13,24.00
2016,08,17,13,14,24.10
2016,08,17,13,15,24.10
2016,08,17,13,16,24.20
2016,08,17,13,17,24.30
2016,08,17,13,18,24.30
2016,08,17,13,19,24.40
2016,08,17,13,20,24.40
2016,08,17,13,21,24.60
2016,08,17,13,22,24.60
2016,08,17,13,23,24.60
2016,08,17,13,24,24.60
2016,08,17,13,25,24.70
2016,08,17,13,26,24.70
2016,08,17,13,27,24.80
2016,08,17,13,28,24.90
2016,08,17,13,29,24.90
2016,08,17,13,30,24.90
2016,08,17,13,31,24.90
2016,08,17,13,32,24.90
2016,08,17,13,33,24.90
2016,08,17,13,34,25.00
2016,08,17,13,35,25.00
2016,08,17,13,36,25.00
2016,08,17,13,37,25.10
2016,08,17,13,38,25.20
2016,08,17,13,39,25.20
2016,08,17,13,40,25.20
2016,08,17,13,41,25.10
2016,08,17,13,42,25.10
2016,08,17,13,43,25.10
2016,08,17,13,44,25.10
2016,08,17,13,45,25.10
2016,08,17,13,46,25.20
2016,08,17,13,47,25.30
2016,08,17,13,48,25.30
2016,08,17,13,49,25.40
2016,08,17,13,50,25.40
2016,08,17,13,51,25.40
2016,08,17,13,52,25.50
2016,08,17,13,53,25.50
2016,08,17,13,54,25.40
2016,08,17,13,55,25.40
2016,08,17,13,56,25.30
2016,08,17,13,57,25.30
2016,08,17,13,58,25.30
2016,08,17,13,59,25.50
2016,08,17,14,00,25.50
2016,08,17,14,01,25.60
2016,08,17,14,02,25.50
2016,08,17,14,03,25.40
2016,08,17,14,04,25.40
2016,08,17,14,05,25.40
2016,08,17,14,06,25.40
2016,08,17,14,07,25.40
2016,08,17,14,08,25.50
2016,08,17,14,09,25.50
2016,08,17,14,10,25.40
2016,08,17,14,11,25.40
2016,08,17,14,12,25.40
2016,08,17,14,13,25.30
2016,08,17,14,14,25.30
2016,08,17,14,15,25.40
2016,08,17,14,16,25.40
2016,08,17,14,17,25.40
2016,08,17,14,18,25.50
2016,08,17,14,19,25.50
2016,08,17,14,20,25.50
2016,08,17,14,21,25.50
2016,08,17,14,22,25.50
2016,08,17,14,23,25.60
2016,08,17,14,24,25.60
2016,08,17,14,25,25.50
2016,08,17,14,26,25.50
2016,08,17,14,27,25.40
2016,08,17,14,28,25.30
2016,08,17,14,29,25.30
2016,08,17,14,30,25.30
2016,08,17,14,31,25.30
2016,08,17,14,32,25.30
2016,08,17,14,33,25.30
2016,08,17,14,34,25.20
2016,08,17,14,35,25.20
2016,08,17,14,36,25.30
2016,08,17,14,37,25.30
2016,08,17,14,38,25.30
2016,08,17,14,39,25.30
2016,08,17,14,40,25.30
2016,08,17,14,41,25.30
2016,08,17,14,42,25.30
2016,08,17,14,43,25.30
2016,08,17,14,44,25.40
2016,08,17,14,45,25.40
2016,08,17,14,46,25.40
2016,08,17,14,47,25.40
2016,08,17,14,48,25.50
2016,08,17,14,49,25.60
2016,08,17,14,50,25.60
2016,08,17,14,51,25.60
2016,08,17,14,52,25.70
2016,08,17,14,53,25.70
2016,08,17,14,54,25.70
2016,08,17,14,55,25.70
2016,08,17,14,56,25.70
2016,08,17,14,57,25.70
2016,08,17,14,58,25.80
2016,08,17,14,59,25.90
2016,08,17,15,00,25.90
2016,08,17,15,01,26.00
2016,08,17,15,02,26.00
2016,08,17,15,03,26.10
2016,08,17,15,04,26.10
2016,08,17,15,05,26.20
2016,08,17,15,06,26.20
2016,08,17,15,07,26.20
2016,08,17,15,08,26.20
2016,08,17,15,09,26.20
2016,08,17,15,10,26.20
2016,08,17,15,11,26.20
2016,08,17,15,12,26.20
2016,08,17,15,13,26.20
2016,08,17,15,14,26.20
2016,08,17,15,15,26.20
2016,08,17,15,16,26.20
2016,08,17,15,17,26.20
2016,08,17,15,18,26.20
2016,08,17,15,19,26.10
2016,08,17,15,20,26.10
2016,08,17,15,21,26.00
2016,08,17,15,22,25.90
2016,08,17,15,23,25.90
2016,08,17,15,24,25.80
2016,08,17,15,25,25.80
2016,08,17,15,26,25.70
2016,08,17,15,27,25.70
2016,08,17,15,28,25.70
2016,08,17,15,29,25.60
2016,08,17,15,30,25.60
2016,08,17,15,31,25.60
2016,08,17,15,32,25.60
2016,08,17,15,33,25.70
2016,08,17,15,34,25.70
2016,08,17,15,35,25.80
2016,08,17,15,36,25.80
2016,08,17,15,37,25.90
2016,08,17,15,38,25.90
2016,08,17,15,39,25.90
2016,08,17,15,40,26.00
2016,08,17,15,41,26.10
2016,08,17,15,42,26.10
2016,08,17,15,43,26.10
2016,08,17,15,44,26.20
2016,08,17,15,45,26.10
2016,08,17,15,46,26.10
2016,08,17,15,47,26.10
2016,08,17,15,48,26.10
2016,08,17,15,49,26.10
2016,08,17,15,50,26.10
2016,08,17,15,51,26.20
2016,08,17,15,52,26.20
2016,08,17,15,53,26.20
2016,08,17,15,54,26.20
2016,08,17,15,55,26.20
2016,08,17,15,56,26.20
2016,08,17,15,57,26.10
2016,08,17,15,58,26.10
2016,08,17,15,59,26.10
2016,08,17,16,00,26.10
2016,08,17,16,01,26.20
2016,08,17,16,02,26.30
2016,08,17,16,03,26.30
2016,08,17,16,04,26.30
2016,08,17,16,05,26.30
2016,08,17,16,06,26.40
2016,08,17,16,07,26.30
2016,08,17,16,08,26.30
2016,08,17,16,09,26.40
2016,08,17,16,10,26.40
2016,08,17,16,11,26.40
2016,08,17,16,12,26.40
2016,08,17,16,13,26.50
2016,08,17,16,14,26.60
2016,08,17,16,15,26.60
2016,08,17,16,16,26.60
2016,08,17,16,17,26.50
2016,08,17,16,18,26.50
2016,08,17,16,19,26.50
2016,08,17,16,20,26.60
2016,08,17,16,21,26.60
2016,08,17,16,22,26.60
2016,08,17,16,23,26.70
2016,08,17,16,24,26.70
2016,08,17,16,25,26.70
2016,08,17,16,26,26.70
2016,08,17,16,27,26.80
2016,08,17,16,28,26.80
2016,08,17,16,29,26.80
2016,08,17,16,30,26.80
2016,08,17,16,31,26.80
2016,08,17,16,32,26.80
2016,08,17,16,33,26.80
2016,08,17,16,34,26.80
2016,08,17,16,35,26.80
2016,08,17,16,36,26.80
2016,08,17,16,37,26.80
2016,08,17,16,38,26.90
2016,08,17,16,39,26.90
2016,08,17,16,40,26.90
2016,08,17,16,41,27.00
2016,08,17,16,42,27.00
2016,08,17,16,43,27.00
2016,08,17,16,44,27.00
2016,08,17,16,45,27.00
2016,08,17,16,46,26.90
2016,08,17,16,47,26.90
2016,08,17,16,48,26.90
2016,08,17,16,49,26.90
2016,08,17,16,50,26.90
2016,08,17,16,51,26.90
2016,08,17,16,52,27.00
2016,08,17,16,53,27.00
2016,08,17,16,54,27.00
2016,08,17,16,55,27.00
2016,08,17,16,56,27.00
2016,08,17,16,57,27.10
2016,08,17,16,58,27.10
2016,08,17,16,59,27.10
2016,08,17,17,00,27.10
2016,08,17,17,01,27.10
2016,08,17,17,02,27.10
2016,08,17,17,03,27.10
2016,08,17,17,04,27.10
2016,08,17,17,05,27.10
2016,08,17,17,06,27.10
2016,08,17,17,07,27.10
2016,08,17,17,08,27.10
2016,08,17,17,09,27.10
2016,08,17,17,10,27.10
2016,08,17,17,11,27.20
2016,08,17,17,12,27.20
2016,08,17,17,13,27.20
2016,08,17,17,14,27.10
2016,08,17,17,15,27.20
2016,08,17,17,16,27.10
2016,08,17,17,17,27.10
2016,08,17,17,18,27.10
2016,08,17,17,19,27.00